Hoquiam, WA
on Sunday, December 30, 2012

Sunday
Previous Day Next Day
Daily Summary
 ActualAverageRecord
Temperature
Mean Temperature °F 42°F  
Max Temperature 45°F 46°F 55°F (1963)
Min Temperature 35°F 37°F 16°F (1968)
Degree Days
Heating Degree Days 25 23  
Month to date heating degree days 706  
Cooling Degree Days 0 0  
Month to date cooling degree days 0  
Year to date cooling degree days 23  
Moisture
Dew Point 37°F   
Average Humidity 90    
Maximum Humidity 100    
Minimum Humidity 71    
Precipitation
Precipitation 0.00 in 0.31 in 1.33 in (1980)
Month to date precipitation 9.65  
Year to date precipitation 67.24  
Wind
Wind Speed 7 mph   
Max Wind Speed 14 mph   
Max Gust Speed mph   
Visibility 10 miles   
Events     

Key: T is trace of precipitation, MM is missing value
Source: NWS Daily Summary
Time(PST)TemperatureDew PointHumidity Pressure Visibility Wind DirectionWind SpeedGust SpeedPrecipitationEvents Conditions
12:17 AM 41.0°F 39.2°F 93% 30.22 in 10.0 miles ENE 5.8 mph - N/A   Overcast
12:30 AM 41.0°F 39.2°F 93% 30.22 in 10.0 miles ENE 5.8 mph - N/A   Overcast
12:53 AM 41.0°F 39.0°F 93% 30.23 in 10.0 miles ENE 6.9 mph - N/A   Overcast
1:53 AM 41.0°F 39.0°F 93% 30.23 in 10.0 miles ENE 9.2 mph - N/A   Overcast
2:53 AM 39.9°F 39.0°F 97% 30.26 in 10.0 miles ENE 3.5 mph - N/A   Overcast
3:53 AM 39.9°F 37.9°F 93% 30.27 in 10.0 miles ENE 5.8 mph - N/A   Overcast
4:53 AM 39.9°F 39.0°F 97% 30.26 in 10.0 miles ENE 8.1 mph - N/A   Overcast
5:53 AM 39.9°F 37.9°F 93% 30.26 in 8.0 miles East 10.4 mph - N/A   Overcast
6:53 AM 39.0°F 37.9°F 96% 30.27 in 10.0 miles ENE 4.6 mph - N/A   Overcast
7:53 AM 39.0°F 37.0°F 93% 30.28 in 9.0 miles ENE 8.1 mph - N/A   Overcast
8:53 AM 39.0°F 37.9°F 96% 30.30 in 7.0 miles ENE 6.9 mph - N/A   Overcast
9:53 AM 39.0°F 39.0°F 100% 30.31 in 6.0 miles ENE 5.8 mph - N/A   Mostly Cloudy
10:53 AM 41.0°F 39.0°F 93% 30.31 in 10.0 miles East 9.2 mph - N/A   Clear
11:53 AM 44.1°F 39.0°F 82% 30.30 in 10.0 miles East 10.4 mph - N/A   Clear
12:53 PM 45.0°F 36.0°F 71% 30.29 in 10.0 miles East 9.2 mph - N/A   Clear
1:53 PM 44.1°F 37.0°F 76% 30.27 in 10.0 miles East 11.5 mph - N/A   Clear
2:53 PM 43.0°F 36.0°F 76% 30.27 in 10.0 miles East 12.7 mph - N/A   Clear
3:53 PM 41.0°F 35.1°F 79% 30.26 in 10.0 miles ENE 13.8 mph - N/A   Clear
4:53 PM 39.9°F 34.0°F 79% 30.26 in 10.0 miles ENE 9.2 mph - N/A   Clear
5:53 PM 39.0°F 34.0°F 82% 30.27 in 10.0 miles NNE 5.8 mph - N/A   Clear
6:53 PM 37.9°F 34.0°F 86% 30.27 in 10.0 miles NE 3.5 mph - N/A   Clear
7:53 PM 35.1°F 33.1°F 92% 30.27 in 10.0 miles East 6.9 mph - N/A   Clear
8:53 PM 35.1°F 34.0°F 96% 30.27 in 9.0 miles ENE 3.5 mph - N/A   Clear
9:53 PM 36.0°F 34.0°F 93% 30.27 in 10.0 miles ENE 9.2 mph - N/A   Clear
10:53 PM 36.0°F 34.0°F 93% 30.28 in 9.0 miles East 8.1 mph - N/A   Partly Cloudy
11:53 PM 35.1°F 35.1°F 100% 30.28 in 9.0 miles East 4.6 mph - N/A   Clear
Moon Phase
Dec. 30 Jan. 04 Jan. 11 Jan. 18 Jan. 26
Sunrise:08:01 AM (PST) Moon Rise:07:23 PM (PST)12/30
Sunset:04:35 PM (PST) Moon Set:09:04 AM (PST)12/30

Copyright © 2014 The Weather Underground, Inc.